Weather History for Abbeville, LA

Change the Weather History Date:

Friday, October 12, 2012

  Actual Average (KARA) Record (KARA)
Temperature  
Mean Temperature 73 °F 71 °F  
Max Temperature 86 °F 82 °F 89 °F (1997)
Min Temperature 60 °F 60 °F 41 °F (1952)
Degree Days  
Heating Degree Days 0 1  
Month to date heating degree days 1  
Since 1 July heating degree days 2  
Cooling Degree Days 8 7  
Month to date cooling degree days 98  
Year to date cooling degree days 2654  
Growing Degree Days 23 (Base 50)    
Moisture  
Dew Point 67 °F    
Average Humidity 84    
Maximum Humidity 100    
Minimum Humidity 54    
Precipitation  
Precipitation 0.00 in 0.18 in 1.90 in (2009)
Month to date precipitation 2.37  
Year to date precipitation 47.85  
Sea Level Pressure  
Sea Level Pressure 30.18 in    
Wind  
Wind Speed 2 mph ()    
Max Wind Speed 9 mph    
Max Gust Speed -    
Visibility 6.4 miles    
Events Fog    
T = Trace of Precipitation, MM = Missing Value Source: Averaged Metar Reports

Daily Weather History Graph

Daily Weather History Graph

Search for Another Location

Airport:

Trip Planner

Search our weather history database for the weather conditions in past years. The results will help you decide how hot, cold, wet, or windy it might be!

Date:

Astronomy

Oct. 12, 2012 Rise Set
Actual Time 7:08 AM CDT 6:40 PM CDT
Civil Twilight 6:44 AM CDT 7:04 PM CDT
Nautical Twilight 6:16 AM CDT 7:32 PM CDT
Astronomical Twilight 5:49 AM CDT 7:59 PM CDT
Moon 4:04 AM CDT (10/12) 4:40 PM CDT (10/12)
Length of Visible Light 12h 19m
Length of Day
11h 31m
Waning Crescent, 10% of the Moon is Illuminated
Oct 12
Waning Crescent
Oct 15
New
Oct 21
First Quarter
Oct 29
Full
Nov 6
Last Quarter

Hourly Weather History & Observations

Time (CDT) Temp. Heat Index Dew Point Humidity Pressure Visibility Wind Dir Wind Speed Gust Speed Precip Events Conditions
12:15 AM 68.4 °F - 68.4 °F 100% 30.18 in 7.0 mi Calm Calm - N/A   Clear
12:35 AM 66.0 °F - 66.0 °F 100% 30.18 in 0.2 mi Calm Calm - N/A Fog Fog
12:55 AM 65.8 °F - 65.8 °F 100% 30.18 in 2.0 mi Calm Calm - N/A   Clear
1:15 AM 66.7 °F - 66.7 °F 100% 30.18 in 4.0 mi Calm Calm - N/A   Clear
1:35 AM 66.6 °F - 66.6 °F 100% 30.17 in 3.0 mi Calm Calm - N/A   Clear
1:55 AM 64.8 °F - 64.8 °F 100% 30.18 in 0.2 mi Calm Calm - N/A Fog Fog
2:15 AM 65.3 °F - 65.3 °F 100% 30.17 in 0.2 mi Calm Calm - N/A Fog Fog
2:35 AM 63.3 °F - 63.3 °F 100% 30.17 in 0.2 mi Calm Calm - N/A Fog Fog
2:55 AM 62.4 °F - 62.4 °F 100% 30.16 in 0.2 mi Calm Calm - N/A Fog Fog
3:15 AM 62.1 °F - 62.1 °F 100% 30.17 in 0.5 mi Calm Calm - N/A Fog Fog
3:35 AM 63.1 °F - 63.1 °F 100% 30.16 in 0.8 mi East 3.5 mph - N/A   Mist
3:55 AM 62.8 °F - 62.8 °F 100% 30.16 in 0.5 mi Calm Calm - N/A Fog Fog
4:15 AM 62.8 °F - 62.8 °F 100% 30.16 in 0.2 mi Calm Calm - N/A Fog Fog
4:35 AM 63.0 °F - 63.0 °F 100% 30.16 in 0.5 mi ENE 3.5 mph - N/A Fog Fog
4:55 AM 64.0 °F - 64.0 °F 100% 30.16 in 1.5 mi Calm Calm - N/A   Scattered Clouds
5:15 AM 61.7 °F - 61.7 °F 100% 30.16 in 0.2 mi Calm Calm - N/A Fog Fog
5:35 AM 60.1 °F - 60.1 °F 100% 30.17 in 0.2 mi Calm Calm - N/A Fog Fog
5:55 AM 60.6 °F - 60.6 °F 100% 30.17 in 0.2 mi Calm Calm - N/A Fog Fog
6:15 AM 61.2 °F - 61.2 °F 100% 30.17 in 0.2 mi Calm Calm - N/A Fog Fog
6:35 AM 60.1 °F - 60.1 °F 100% 30.18 in 0.5 mi Calm Calm - N/A Fog Fog
6:55 AM 60.6 °F - 60.6 °F 100% 30.18 in 0.2 mi Calm Calm - N/A Fog Fog
7:35 AM 60.6 °F - 60.6 °F 100% 30.20 in 0.2 mi Calm Calm - N/A Fog Fog
7:55 AM 61.9 °F - 61.9 °F 100% 30.20 in 0.5 mi Calm Calm - N/A Fog Fog
8:15 AM 65.5 °F - 65.5 °F 100% 30.21 in 3.0 mi Calm Calm - N/A   Scattered Clouds
8:35 AM 67.8 °F - 67.8 °F 100% 30.22 in 5.0 mi Calm Calm - N/A   Clear
9:15 AM 71.2 °F - 71.2 °F 100% 30.23 in 10.0 mi East 3.5 mph - N/A   Clear
9:55 AM 73.4 °F - 73.4 °F 100% 30.24 in 10.0 mi ESE 6.9 mph - N/A   Clear
10:15 AM 77.2 °F - 73.0 °F 87% 30.23 in 10.0 mi SE 5.8 mph - N/A   Clear
10:35 AM 79.7 °F - 71.8 °F 77% 30.23 in 10.0 mi SE 4.6 mph - N/A   Clear
10:55 AM 81.1 °F 85.0 °F 71.1 °F 71% 30.24 in 10.0 mi ESE 6.9 mph - N/A   Clear
11:15 AM 82.2 °F 86.4 °F 70.5 °F 68% 30.24 in 10.0 mi SE 5.8 mph - N/A   Scattered Clouds
11:35 AM 83.1 °F 86.6 °F 68.9 °F 62% 30.24 in 10.0 mi ESE 6.9 mph - N/A   Mostly Cloudy
11:55 AM 82.8 °F 86.2 °F 69.1 °F 63% 30.24 in 10.0 mi ESE 5.8 mph - N/A   Overcast
12:15 PM 83.3 °F 86.9 °F 68.9 °F 62% 30.23 in 10.0 mi SE 4.6 mph - N/A   Overcast
12:55 PM 84.6 °F 88.2 °F 68.7 °F 59% 30.22 in 10.0 mi SSE 5.8 mph - N/A   Mostly Cloudy
1:35 PM 83.5 °F 86.4 °F 68.0 °F 59% 30.20 in 10.0 mi East 3.5 mph - N/A   Scattered Clouds
1:55 PM 83.5 °F 86.0 °F 66.7 °F 57% 30.19 in 10.0 mi Calm Calm - N/A   Clear
2:15 PM 85.5 °F 88.5 °F 67.6 °F 55% 30.18 in 10.0 mi Calm Calm - N/A   Scattered Clouds
2:35 PM 86.7 °F 90.3 °F 68.0 °F 54% 30.18 in 10.0 mi SE 4.6 mph - N/A   Scattered Clouds
3:15 PM 86.2 °F 89.4 °F 67.8 °F 54% 30.17 in 10.0 mi SSE 6.9 mph - N/A   Scattered Clouds
3:35 PM 86.9 °F 91.0 °F 69.1 °F 55% 30.16 in 10.0 mi SSE 5.8 mph - N/A   Clear
3:55 PM 86.9 °F 90.6 °F 68.4 °F 54% 30.16 in 10.0 mi SSE 5.8 mph - N/A   Clear
4:15 PM 86.9 °F 91.3 °F 69.4 °F 56% 30.16 in 10.0 mi SSE 6.9 mph - N/A   Clear
4:35 PM 84.9 °F 88.5 °F 68.7 °F 58% 30.16 in 10.0 mi SSE 5.8 mph - N/A   Scattered Clouds
4:55 PM 85.8 °F 89.4 °F 68.7 °F 56% 30.16 in 10.0 mi SSE 9.2 mph - N/A   Scattered Clouds
5:15 PM 84.9 °F 88.2 °F 68.4 °F 57% 30.16 in 10.0 mi SE 4.6 mph - N/A   Scattered Clouds
5:55 PM 82.9 °F 86.0 °F 68.4 °F 61% 30.16 in 10.0 mi SE 4.6 mph - N/A   Clear
6:15 PM 81.1 °F 84.2 °F 68.9 °F 66% 30.16 in 10.0 mi SE 4.6 mph - N/A   Clear
6:35 PM 79.0 °F - 68.2 °F 69% 30.16 in 10.0 mi SSE 4.6 mph - N/A   Clear
6:55 PM 77.5 °F - 68.4 °F 73% 30.16 in 10.0 mi SE 4.6 mph - N/A   Clear
7:15 PM 77.0 °F - 69.3 °F 77% 30.16 in 10.0 mi ESE 3.5 mph - N/A   Clear
7:35 PM 75.9 °F - 69.8 °F 81% 30.17 in 10.0 mi ESE 4.6 mph - N/A   Clear
7:55 PM 75.0 °F - 69.8 °F 84% 30.17 in 10.0 mi Calm Calm - N/A   Clear
8:15 PM 73.0 °F - 70.7 °F 92% 30.18 in 10.0 mi Calm Calm - N/A   Clear
8:35 PM 71.8 °F - 70.2 °F 95% 30.18 in 10.0 mi Calm Calm - N/A   Clear
9:15 PM 74.3 °F - 72.7 °F 95% 30.18 in 10.0 mi SE 3.5 mph - N/A   Mostly Cloudy
9:35 PM 73.8 °F - 73.0 °F 98% 30.18 in 10.0 mi SE 4.6 mph - N/A   Scattered Clouds
9:55 PM 73.9 °F - 73.8 °F 99% 30.18 in 10.0 mi SE 4.6 mph - N/A   Clear
10:15 PM 74.7 °F - 74.3 °F 99% 30.18 in 10.0 mi SE 4.6 mph - N/A   Clear
10:35 PM 74.3 °F - 74.1 °F 99% 30.19 in 10.0 mi Calm Calm - N/A   Clear